Logan, UT

7:26 PM MST on December 09, 2019 (GMT -0700)
Logan-Cache

Weather History for KLGU - October, 2019

Change the Weather History Date:

Sunday, October 6, 2019

  Actual Average Record
Temperature  
Mean Temperature 42 °F -  
Max Temperature 59 °F 68 °F 83 °F (1958)
Min Temperature 28 °F 34 °F 24 °F (2000)
Degree Days  
Heating Degree Days 22    
Moisture  
Dew Point 27 °F    
Average Humidity 58    
Maximum Humidity 88    
Minimum Humidity 24    
Precipitation  
Precipitation 0.00 in - - ()
Sea Level Pressure  
Sea Level Pressure 30.40 in    
Wind  
Wind Speed 3 mph ()    
Max Wind Speed 7 mph    
Max Gust Speed -    
Visibility 10.0 miles    
Events      
Averages and records for this station are not official NWS values.
T = Trace of Precipitation, MM = Missing Value Source: Averaged Metar Reports

Daily Weather History Graph

Daily Weather History Graph

Search for Another Location

Airport or City:

Astronomy

Oct. 06, 2019 Rise Set
Actual Time 7:29 AM MDT 7:00 PM MDT
Civil Twilight 7:01 AM MDT 7:28 PM MDT
Nautical Twilight 6:29 AM MDT 8:00 PM MDT
Astronomical Twilight 5:57 AM MDT 8:33 PM MDT
Moon 3:49 PM MDT (10/6) 12:24 AM MDT (10/6)
Length of Visible Light 12h 26m
Length of Day
11h 31m
First Quarter, 60% of the Moon is Illuminated
Oct 6
First Quarter
Oct 13
Full
Oct 21
Last Quarter
Oct 27
New
Nov 4
First Quarter

Hourly Weather History & Observations

Time (MDT) Temp. Windchill Dew Point Humidity Pressure Visibility Wind Dir Wind Speed Gust Speed Precip Events Conditions
12:51 AM 39.0 °F 35.7 °F 28.9 °F 67% 30.31 in 10.0 mi East 4.6 mph - N/A   Clear
1:51 AM 34.0 °F 31.0 °F 28.0 °F 79% 30.33 in 10.0 mi South 3.5 mph - N/A   Clear
2:51 AM 35.1 °F 31.0 °F 28.0 °F 76% 30.35 in 10.0 mi ESE 4.6 mph - N/A   Clear
3:51 AM 30.9 °F - 27.0 °F 85% 30.36 in 10.0 mi Calm Calm - N/A   Clear
4:51 AM 28.9 °F 22.8 °F 25.0 °F 85% 30.39 in 10.0 mi North 5.8 mph - N/A   Clear
5:51 AM 30.9 °F 26.2 °F 27.0 °F 85% 30.40 in 10.0 mi SE 4.6 mph - N/A   Clear
6:51 AM 30.0 °F 26.5 °F 27.0 °F 88% 30.43 in 10.0 mi West 3.5 mph - N/A   Clear
7:51 AM 28.9 °F 22.8 °F 25.0 °F 85% 30.49 in 10.0 mi NNE 5.8 mph - N/A   Clear
8:51 AM 36.0 °F - 28.9 °F 76% 30.49 in 10.0 mi Calm Calm - N/A   Clear
9:51 AM 39.9 °F - 28.0 °F 63% 30.49 in 10.0 mi Calm Calm - N/A   Clear
10:51 AM 44.1 °F 41.5 °F 30.0 °F 58% 30.48 in 10.0 mi North 4.6 mph - N/A   Clear
11:51 AM 48.0 °F - 30.0 °F 50% 30.47 in 10.0 mi Variable 5.8 mph - N/A   Clear
12:51 PM 53.1 °F - 30.9 °F 43% 30.45 in 10.0 mi Variable 4.6 mph - N/A   Clear
1:51 PM 54.0 °F - 28.0 °F 37% 30.44 in 10.0 mi West 5.8 mph - N/A   Clear
2:51 PM 57.0 °F - 28.0 °F 33% 30.40 in 10.0 mi WNW 6.9 mph - N/A   Clear
3:51 PM 57.0 °F - 23.0 °F 27% 30.39 in 10.0 mi Variable 3.5 mph - N/A   Clear
4:51 PM 57.0 °F - 21.0 °F 25% 30.38 in 10.0 mi NW 3.5 mph - N/A   Clear
5:51 PM 57.9 °F - 21.0 °F 24% 30.36 in 10.0 mi Calm Calm - N/A   Clear
6:51 PM 55.9 °F - 25.0 °F 30% 30.36 in 10.0 mi Calm Calm - N/A   Clear
7:51 PM 46.9 °F - 28.9 °F 50% 30.39 in 10.0 mi Calm Calm - N/A   Clear
8:51 PM 46.0 °F 43.1 °F 27.0 °F 47% 30.38 in 10.0 mi SE 5.8 mph - N/A   Clear
9:51 PM 46.0 °F 43.1 °F 24.1 °F 42% 30.37 in 10.0 mi South 5.8 mph - N/A   Clear
10:51 PM 37.0 °F 33.3 °F 28.0 °F 70% 30.38 in 10.0 mi NNW 4.6 mph - N/A   Clear
11:51 PM 37.0 °F 33.3 °F 28.0 °F 70% 30.36 in 10.0 mi NNE 4.6 mph - N/A   Clear